EW4858 Weather Reports


Display with metric or nautical units.
time (UTC)temp
F
wind
direction
speed
MPH
gust
MPH
rain 1hr
in
rain 24hr
in
rain mn
in
humidity
%
barometer
mb
20260905020049 78 38 2.0 7.0 0.00 0.00 0.00 45 1007.9
20260905014543 79 44 4.0 7.0 0.00 0.00 0.00 42 1007.8
20260905013049 80 36 0.0 7.0 0.00 0.00 0.00 43 1007.7
20260905011622 81 17 0.0 7.0 0.00 0.00 0.00 43 1007.7
20260905010043 80 41 3.0 6.0 0.00 0.00 0.00 43 1007.6
20260905004542 81 55 4.0 8.0 0.00 0.00 0.00 43 1007.7
20260905003040 80 79 2.0 10.0 0.00 0.00 0.00 46 1007.7
20260905001550 81 62 5.0 9.0 0.00 0.00 0.00 45 1007.8
20260905000042 81 67 4.0 9.0 0.00 0.00 0.00 45 1007.9
20260904234539 81 70 6.0 12.0 0.00 0.00 0.00 45 1007.8
20260904233041 81 69 5.0 11.0 0.00 0.00 0.00 46 1007.8
20260904231537 81 53 7.0 11.0 0.00 0.00 0.00 46 1007.9
20260904230037 82 61 6.0 11.0 0.00 0.00 0.00 45 1007.9
20260904224536 82 40 5.0 10.0 0.00 0.00 0.00 45 1007.9
20260904223036 82 65 6.0 12.0 0.00 0.00 0.00 42 1008.1
20260904221533 83 17 7.0 14.0 0.00 0.00 0.00 42 1008.2
20260904220033 83 20 6.0 11.0 0.00 0.00 0.00 43 1008.2
20260904214531 83 360 6.0 11.0 0.00 0.00 0.00 44 1008.3
20260904213032 83 56 7.0 13.0 0.00 0.00 0.00 43 1008.2
20260904211529 83 92 6.0 13.0 0.00 0.00 0.00 44 1008.2
20260904210034 83 24 7.0 12.0 0.00 0.00 0.00 45 1008.3
20260904204531 83 28 4.0 11.0 0.00 0.00 0.00 45 1008.3
20260904203027 83 111 5.0 10.0 0.00 0.00 0.00 47 1008.3
20260904201524 82 51 7.0 13.0 0.00 0.00 0.00 48 1008.4
20260904200028 82 360 4.0 12.0 0.00 0.00 0.00 48 1008.5
20260904194523 82 66 8.0 13.0 0.00 0.00 0.00 48 1008.6
20260904193025 82 24 0.0 10.0 0.00 0.00 0.00 44 1008.8
20260904191522 81 97 1.0 7.0 0.00 0.00 0.00 46 1008.9
20260904190017 80 103 2.0 8.0 0.00 0.00 0.00 48 1009.1
20260904184513 79 360 3.0 8.0 0.00 0.00 0.00 50 1009.3
20260904183011 78 11 6.0 10.0 0.00 0.00 0.00 52 1009.5
20260904181526 77 86 0.0 8.0 0.00 0.00 0.00 55 1009.5
20260904180008 77 11 5.0 8.0 0.00 0.00 0.00 56 1009.6
20260904174502 76 20 0.0 8.0 0.00 0.00 0.00 60 1009.7
20260904173058 74 325 1.0 6.0 0.00 0.00 0.00 62 1009.7
20260904171604 72 149 0.0 5.0 0.00 0.00 0.00 66 1009.8
20260904170053 71 128 0.0 4.0 0.00 0.00 0.00 68 1009.8
20260904164549 71 93 0.0 2.0 0.00 0.00 0.00 70 1009.7
20260904163050 70 58 0.0 3.0 0.00 0.00 0.00 70 1009.8
20260904161544 69 306 0.0 2.0 0.00 0.00 0.00 72 1009.6
20260904160041 68 30 0.0 4.0 0.00 0.00 0.00 73 1009.5
20260904154546 68 275 2.0 5.0 0.00 0.00 0.00 75 1009.6
20260904153038 68 297 1.0 4.0 0.00 0.00 0.00 75 1009.6
20260904151538 66 263 0.0 4.0 0.00 0.00 0.00 77 1009.5
20260904150034 66 247 3.0 6.0 0.00 0.00 0.00 78 1009.4
20260904144529 65 278 3.0 7.0 0.00 0.00 0.00 79 1009.4
20260904143035 65 278 3.0 6.0 0.00 0.00 0.00 80 1009.2
20260904141607 64 260 1.0 5.0 0.00 0.00 0.00 81 1009.1
20260904141508 64 260 2.0 5.0 0.00 0.00 0.00 81 1009.1
20260904140039 64 263 2.0 5.0 0.00 0.00 0.00 83 1009.0
20260904134526 64 248 1.0 5.0 0.00 0.00 0.00 83 1009.0
20260904133023 64 273 4.0 7.0 0.00 0.00 0.00 83 1009.0
20260904131526 64 271 4.0 5.0 0.00 0.00 0.00 83 1008.7
20260904130021 64 275 4.0 6.0 0.00 0.00 0.00 83 1008.6
20260904124521 64 273 3.0 6.0 0.00 0.00 0.00 83 1008.5
20260904123030 64 263 2.0 5.0 0.00 0.00 0.00 83 1008.4
20260904121522 65 263 3.0 5.0 0.00 0.00 0.00 83 1008.4
20260904120021 65 265 1.0 6.0 0.00 0.00 0.00 83 1008.4
20260904114518 65 265 2.0 5.0 0.00 0.00 0.00 83 1008.7
20260904113018 65 265 0.0 0.0 0.00 0.00 0.00 83 1008.6
20260904111517 65 265 1.0 4.0 0.00 0.00 0.00 83 1008.7
20260904110017 65 88 1.0 3.0 0.00 0.00 0.00 83 1008.6
20260904104516 65 85 0.0 3.0 0.00 0.00 0.00 83 1008.5
20260904103023 65 82 0.0 0.0 0.00 0.00 0.00 83 1008.6
20260904101515 65 82 0.0 0.0 0.00 0.00 0.00 83 1008.5
20260904100027 65 5 0.0 0.0 0.00 0.00 0.00 83 1008.5
20260904094514 65 5 0.0 0.0 0.00 0.00 0.00 83 1008.5
20260904093014 65 279 0.0 0.0 0.00 0.00 0.00 84 1008.4
20260904091514 65 279 0.0 0.0 0.00 0.00 0.00 84 1008.4
20260904090015 64 198 0.0 0.0 0.00 0.00 0.00 84 1008.4
20260904084512 64 198 0.0 2.0 0.00 0.00 0.00 84 1008.6
20260904083016 63 184 0.0 0.0 0.00 0.00 0.00 84 1008.7
20260904081509 63 184 0.0 1.0 0.00 0.00 0.00 84 1008.7
20260904080007 63 184 0.0 0.0 0.00 0.00 0.00 83 1008.8
20260904074506 64 184 0.0 2.0 0.00 0.00 0.00 83 1008.8
20260904073003 64 86 0.0 0.0 0.00 0.00 0.00 82 1008.8
20260904071501 65 86 0.0 0.0 0.00 0.00 0.00 82 1008.9
20260904070059 65 86 0.0 0.0 0.00 0.00 0.00 82 1008.8
20260904064558 65 86 0.0 0.0 0.00 0.00 0.00 81 1008.8
20260904063059 66 84 0.0 3.0 0.00 0.00 0.00 81 1008.8
20260904061557 66 101 0.0 4.0 0.00 0.00 0.00 81 1008.6
20260904060057 66 97 1.0 3.0 0.00 0.00 0.00 80 1008.7
20260904054602 66 108 0.0 1.0 0.00 0.00 0.00 80 1008.6
20260904053103 66 148 0.0 0.0 0.00 0.00 0.00 80 1008.6
20260904051556 67 96 0.0 0.0 0.00 0.00 0.00 80 1008.8
20260904050056 67 96 0.0 0.0 0.00 0.00 0.00 78 1008.7
20260904044556 67 119 0.0 1.0 0.00 0.00 0.00 78 1008.6
20260904043106 67 92 2.0 5.0 0.00 0.00 0.00 77 1008.6
20260904041554 68 105 0.0 3.0 0.00 0.00 0.00 77 1008.6
20260904040053 68 106 0.0 3.0 0.00 0.00 0.00 76 1008.5
20260904034553 68 114 0.0 4.0 0.00 0.00 0.00 76 1008.5
20260904033053 69 111 0.0 3.0 0.00 0.00 0.00 75 1008.3
20260904031552 69 114 2.0 7.0 0.00 0.00 0.00 74 1008.2
20260904030052 70 115 1.0 5.0 0.00 0.00 0.00 72 1008.1
20260904024551 71 86 1.0 5.0 0.00 0.00 0.00 70 1008.0
20260904023051 71 88 1.0 7.0 0.00 0.00 0.00 69 1007.9
20260904021555 72 102 0.0 4.0 0.00 0.00 0.00 68 1007.9